TimeCDT,TemperatureF,Dew PointF,Humidity,Sea Level PressureIn,VisibilityMPH,Wind Direction,Wind SpeedMPH,Gust SpeedMPH,PrecipitationIn,Events,Conditions,WindDirDegrees,DateUTC
12:15 AM,55.0,45.9,71,30.10,10.0,ESE,3.5,-,N/A,,Clear,110,2013-09-28 05:15:00
12:35 AM,55.9,46.0,69,30.09,10.0,ESE,4.6,-,N/A,,Clear,110,2013-09-28 05:35:00
12:55 AM,53.4,46.0,76,30.09,10.0,Calm,Calm,-,N/A,,Clear,0,2013-09-28 05:55:00
1:15 AM,54.1,45.9,74,30.09,10.0,Calm,Calm,-,N/A,,Clear,0,2013-09-28 06:15:00
1:35 AM,54.0,45.9,74,30.09,10.0,Calm,Calm,-,N/A,,Clear,0,2013-09-28 06:35:00
1:55 AM,53.6,45.3,74,30.09,10.0,ESE,3.5,-,N/A,,Clear,110,2013-09-28 06:55:00
2:15 AM,51.4,45.0,79,30.09,10.0,ESE,4.6,-,N/A,,Clear,110,2013-09-28 07:15:00
2:35 AM,54.0,45.5,73,30.09,10.0,East,4.6,-,N/A,,Clear,100,2013-09-28 07:35:00
2:55 AM,54.1,45.5,73,30.08,10.0,ESE,4.6,-,N/A,,Clear,120,2013-09-28 07:55:00
3:15 AM,53.1,45.7,76,30.08,10.0,ESE,4.6,-,N/A,,Clear,120,2013-09-28 08:15:00
3:35 AM,53.2,46.4,78,30.09,10.0,ESE,5.8,-,N/A,,Clear,120,2013-09-28 08:35:00
3:55 AM,53.6,46.9,78,30.09,10.0,ESE,5.8,-,N/A,,Clear,110,2013-09-28 08:55:00
4:15 AM,53.2,47.3,80,30.09,10.0,ESE,8.1,-,N/A,,Clear,110,2013-09-28 09:15:00
4:35 AM,52.7,47.7,83,30.09,10.0,ESE,8.1,-,N/A,,Clear,110,2013-09-28 09:35:00
4:55 AM,52.7,47.8,84,30.09,10.0,ESE,6.9,-,N/A,,Clear,110,2013-09-28 09:55:00
5:15 AM,52.2,48.0,86,30.09,10.0,ESE,6.9,-,N/A,,Clear,120,2013-09-28 10:15:00
5:35 AM,52.0,48.0,86,30.09,10.0,ESE,6.9,-,N/A,,Clear,120,2013-09-28 10:35:00
5:55 AM,51.4,47.8,87,30.09,10.0,ESE,6.9,-,N/A,,Clear,110,2013-09-28 10:55:00
6:15 AM,50.9,47.7,89,30.10,10.0,ESE,6.9,-,N/A,,Clear,110,2013-09-28 11:15:00
6:35 AM,51.4,47.8,87,30.10,10.0,ESE,6.9,-,N/A,,Clear,120,2013-09-28 11:35:00
6:55 AM,51.3,47.8,88,30.10,10.0,ESE,8.1,-,N/A,,Clear,120,2013-09-28 11:55:00
7:15 AM,51.6,48.2,88,30.11,10.0,ESE,5.8,-,N/A,,Clear,120,2013-09-28 12:15:00
7:35 AM,52.7,48.6,86,30.11,10.0,ESE,5.8,-,N/A,,Clear,120,2013-09-28 12:35:00
7:55 AM,54.3,49.3,83,30.12,10.0,ESE,5.8,-,N/A,,Clear,120,2013-09-28 12:55:00
8:15 AM,56.8,50.7,80,30.11,10.0,SE,5.8,-,N/A,,Clear,130,2013-09-28 13:15:00
8:35 AM,61.9,53.1,73,30.12,10.0,SE,8.1,-,N/A,,Clear,140,2013-09-28 13:35:00
8:55 AM,64.9,54.1,68,30.11,10.0,SSE,8.1,-,N/A,,Clear,160,2013-09-28 13:55:00
9:15 AM,67.3,55.2,65,30.10,10.0,SSE,10.4,-,N/A,,Clear,160,2013-09-28 14:15:00
9:35 AM,69.1,56.1,63,30.10,10.0,SSE,10.4,-,N/A,,Clear,160,2013-09-28 14:35:00
9:55 AM,71.8,57.2,60,30.10,10.0,SSE,10.4,-,N/A,,Clear,150,2013-09-28 14:55:00
10:15 AM,73.8,57.4,56,30.09,10.0,South,9.2,-,N/A,,Clear,170,2013-09-28 15:15:00
10:35 AM,76.3,58.1,53,30.08,10.0,South,11.5,17.3,N/A,,Clear,180,2013-09-28 15:35:00
10:55 AM,77.4,59.0,53,30.08,10.0,South,10.4,-,N/A,,Scattered Clouds,170,2013-09-28 15:55:00
11:15 AM,78.3,59.7,53,30.07,10.0,South,13.8,-,N/A,,Scattered Clouds,170,2013-09-28 16:15:00
11:35 AM,79.0,59.2,51,30.06,10.0,South,13.8,17.3,N/A,,Clear,180,2013-09-28 16:35:00
11:55 AM,79.9,59.0,49,30.05,10.0,South,13.8,19.6,N/A,,Clear,190,2013-09-28 16:55:00
12:15 PM,82.2,57.9,43,30.04,10.0,South,13.8,23.0,N/A,,Scattered Clouds,170,2013-09-28 17:15:00
12:35 PM,83.1,56.8,41,30.03,10.0,South,16.1,20.7,N/A,,Scattered Clouds,170,2013-09-28 17:35:00
12:55 PM,83.1,56.8,41,30.02,10.0,South,16.1,24.2,N/A,,Clear,180,2013-09-28 17:55:00
1:15 PM,83.7,56.5,39,30.01,10.0,South,16.1,26.5,N/A,,Clear,190,2013-09-28 18:15:00
1:35 PM,83.5,56.3,39,29.99,10.0,SSW,18.4,26.5,N/A,,Scattered Clouds,200,2013-09-28 18:35:00
1:55 PM,83.3,56.5,40,29.99,10.0,South,15.0,20.7,N/A,,Scattered Clouds,190,2013-09-28 18:55:00
2:15 PM,84.4,55.9,38,29.99,10.0,SSW,21.9,27.6,N/A,,Mostly Cloudy,200,2013-09-28 19:15:00
2:35 PM,84.9,55.6,37,29.99,10.0,South,19.6,25.3,N/A,,Scattered Clouds,190,2013-09-28 19:35:00
2:55 PM,84.7,55.6,37,29.99,10.0,South,18.4,25.3,N/A,,Scattered Clouds,190,2013-09-28 19:55:00
3:15 PM,83.8,54.9,37,29.98,10.0,South,19.6,26.5,N/A,,Scattered Clouds,190,2013-09-28 20:15:00
3:35 PM,83.5,54.9,37,29.98,10.0,SSW,17.3,35.7,N/A,,Scattered Clouds,200,2013-09-28 20:35:00
3:55 PM,83.1,55.4,38,29.97,10.0,SSW,18.4,29.9,N/A,,Clear,210,2013-09-28 20:55:00
4:15 PM,82.2,54.3,38,29.97,10.0,SSW,16.1,28.8,N/A,,Clear,210,2013-09-28 21:15:00
4:35 PM,81.0,55.0,41,29.97,10.0,SSW,18.4,27.6,N/A,,Scattered Clouds,210,2013-09-28 21:35:00
4:55 PM,81.5,55.0,40,29.96,10.0,SSW,10.4,21.9,N/A,,Clear,200,2013-09-28 21:55:00
5:15 PM,81.1,54.9,40,29.96,10.0,SSW,17.3,24.2,N/A,,Clear,200,2013-09-28 22:15:00
5:35 PM,79.7,54.7,42,29.95,10.0,South,10.4,-,N/A,,Clear,180,2013-09-28 22:35:00
5:55 PM,79.3,54.9,43,29.95,10.0,South,12.7,-,N/A,,Clear,190,2013-09-28 22:55:00
6:15 PM,78.8,55.0,44,29.95,10.0,South,11.5,-,N/A,,Clear,190,2013-09-28 23:15:00
6:35 PM,77.9,55.4,46,29.94,10.0,South,10.4,-,N/A,,Clear,180,2013-09-28 23:35:00
6:55 PM,77.2,55.8,47,29.94,10.0,South,10.4,-,N/A,,Clear,190,2013-09-28 23:55:00
7:15 PM,76.5,55.9,49,29.95,10.0,South,10.4,-,N/A,,Scattered Clouds,190,2013-09-29 00:15:00
7:35 PM,75.6,56.3,51,29.95,10.0,South,8.1,-,N/A,,Mostly Cloudy,180,2013-09-29 00:35:00
7:55 PM,75.4,56.3,51,29.95,10.0,South,8.1,-,N/A,,Overcast,180,2013-09-29 00:55:00
8:15 PM,75.2,56.3,52,29.95,10.0,South,9.2,-,N/A,,Overcast,170,2013-09-29 01:15:00
8:35 PM,75.2,55.9,51,29.96,10.0,South,9.2,-,N/A,,Overcast,180,2013-09-29 01:35:00
8:55 PM,75.2,55.8,51,29.96,10.0,South,9.2,-,N/A,,Overcast,170,2013-09-29 01:55:00
9:15 PM,74.8,55.4,51,29.96,10.0,South,9.2,-,N/A,,Overcast,170,2013-09-29 02:15:00
9:35 PM,74.3,55.4,52,29.96,10.0,South,10.4,-,N/A,,Overcast,170,2013-09-29 02:35:00
9:55 PM,73.8,55.4,53,29.96,10.0,South,10.4,-,N/A,,Overcast,180,2013-09-29 02:55:00
10:15 PM,73.4,55.4,53,29.96,10.0,South,9.2,-,N/A,,Overcast,170,2013-09-29 03:15:00
10:35 PM,72.9,55.6,55,29.96,10.0,South,11.5,-,N/A,,Overcast,170,2013-09-29 03:35:00
10:55 PM,72.5,55.8,56,29.96,10.0,South,8.1,-,N/A,,Overcast,180,2013-09-29 03:55:00
11:15 PM,72.0,55.8,57,29.96,10.0,South,6.9,-,N/A,,Overcast,180,2013-09-29 04:15:00
11:35 PM,71.8,56.3,58,29.96,10.0,South,9.2,-,N/A,,Overcast,180,2013-09-29 04:35:00
11:55 PM,72.1,56.3,57,29.95,10.0,South,10.4,-,N/A,,Overcast,180,2013-09-29 04:55:00